Showing default

IRIDIUM 145, 43253

Orbit data source: Space-Track

IRIDIUM 145, 43253 is a payload satellite owned by Iridium (US) in LEO that was launched on Fri, 30 Mar 2018 UTC via an FALCON 9 launch vehicle from the Air Force Western Test Range (AFWTR). Payload-class satellites include a variety of spacecraft equipped with specific instruments for various scientific and technological missions. These include communications satellites like Starlink; space stations such as the ISS; scientific satellites like the Hubble; Earth observation satellites from companies like Planet Labs, Umbra, and HawkEye 360; GPS; miniature CubeSats for education and research; and military/defense satellites.

Loading next visibility...
Identifier
43253, 2018-030E
Orbit
LEO
Country
Flag of USUS
Related business
Manufacturer
OATK SSG Gilbert
Mission
Operational Commercial Communications
Bus & Motor
ELITEBUS, Unknown motor
Mass
860 kg wet, 700 kg dry
Launch date (UTC)
2018-03-30 (8 years ago)
Launch vehicle
FALCON 9
Launch site
Air Force Western Test Range (AFWTR)
Object type
Payload
Rocket body
Debris
Shape & HBR
Trap Box + 2 Pan, 4.8 m
Radar Cross Section
10.154 m², Large (>1 m²)

Expand to show TLE details & history
Last TLE update: 14 hours ago

TLE from 14 hours ago
0 IRIDIUM 145
1 43253U 18030E   25307.63091898 -.00000063  00000-0 -29387-4 0  9994
2 43253  86.4003  24.6922 0001712  98.9308 261.2082 14.34217151397798
Epoch: 2025-11-03T15:08Z
TLE epoch observation values (Epoch: 2025-11-03T15:08:31.399Z)
Latitude
-0.00001°
Longitude
114.43184°
Altitude
780.908 km
Speed
7.463 km/s
True Right ascension
01h 38m 46s
True Declination
0° 00' 00"
Sunlit
Object was in full shadow at epoch
Visualization orbit readout
Latitude
Unknown
Longitude
Unknown
Altitude
Unknown
Speed
Unknown
Apparent Right ascension
Unknown
Apparent Declination
Unknown
Sunlit
N/A
Visualization observer readout
Local Sidereal Time
00:35:40
Azimuth
Unknown
Elevation
Unknown
Doppler factor
Unknown
Orbital elements
Apogee altitude
775.858 km
Perigee altitude
773.409 km
Semi-major axis
7,152.771 km
Eccentricity
0.00017
Inclination
86.4003°
RAAN
24.6922°
Arg. of periapsis
98.9308°
True anomaly
261.18881°
Mean anomaly
261.2082°
Eccentric anomaly
261.19851°
Mean motion
3.58783 °/min
Orbital period
100.34 mins
BSTAR
-0.000029387
Loading maneuver chart data...
Computing Atmospheric mass density...
Loading historical data...
Loading historical data...
Loading historical data...
Loading historical data...
Loading historical data...
Loading historical data...
Loading historical data...

Documentation

Showing up to 5 results
|